“In life, you're either a passenger or a pilot. It’s your choice.”

WELCOME TO YOUR AVIATION DREAM!

What's new Up There Icon

WHAT’S NEW HERE?

4000+ aviation terms, acronyms and definitions!
Make your study a little easier with the aviation glossaries that gather over 4000 terms and acronyms extracted from weather, communications, technical and more general topics…
Partnership Icon

PARTNESHIP ANNOUNCEMENT

I am proud to announce a partnership with nizul Logo, study partner of every pilot who wants to consolidate their ground school knowledge and master their written examination.

Try Me Icon

ALL YOURS FOR 30 MINUTES!

Not sure you’d get along with a freelance instructor? How about giving it a try with a 30 minute flight?
My treat! All free.

Resources Tool Box

STUDENT RESOURCES

As a registered student training with me, you get access to a whole lot of files, tools, documents, aviation glossaries, videos, quizzes, sample tests, etc… 

Control Tower Icon

QUESTIONS? CHECK F.A.Q.

In aviation, the only stupid question is the one you didn’t ask. And there is a big chance yours has already been answered in the FAQ. Check it out!

Brain Icon

ARE YOU WIRED FOR FLYING?

Flying an aircraft is usually not the most difficult part of the “problem” and it takes a certain mindset to deal with the other aspects of a flight. Find out wether…

THEY DID IT!

Meet those who refused to be the passengers of their lives, and learn about their experience.

QUICK FACTS

Aviation is a world of serious numbers.
Here are my own, and they count as much as the other ones.

0
YEARS OF
WISDOM
0
YEARS OF
SKY FUN
0
AMAZING
STUDENTS
0
HOURS OF
PURE EXCITEMENT

Grow some wings,
Come fly with me!

Vancouver Island Weather

METARs and TAFs.
VICTORIA INTL (CYYJ)
METAR:

CYYJ 031800Z 31004KT 30SM FEW030 SCT160 BKN210 04/02 A3037 RMK SC1AC2CC4 SLP287

TAF:

TAF CYYJ 031740Z 0318/0418 29008KT P6SM SCT025 BKN180 BKN220 TEMPO 0318/0323 BKN025 FM032300 33008KT P6SM FEW030 BKN150 FM040600 30008KT P6SM OVC100 FM040900 28005KT P6SM OVC080 TEMPO 0409/0411 P6SM -RA OVC050 FM041100 28006KT P6SM -RA SCT006 OVC030 TEMPO 0411/0418 4SM -RA BR BKN006 OVC020 RMK NXT FCST BY 040000Z

NANAIMO (CYCD)
METAR:

CYCD 031800Z 26003KT 20SM FEW012 BKN180 OVC210 03/M02 A3039 RMK SC1AC5CI3 SC TR SLP293

TAF:

TAF CYCD 031740Z 0318/0405 26004KT P6SM FEW025 BKN180 BKN220 BECMG 0318/0320 34007KT RMK NXT FCST BY 040000Z

LONG BEACH (CYAZ)
METAR:

CYAZ 031800Z 00000KT 15SM FEW140 BKN180 BKN240 01/01 A3036 RMK AC2AC3CI2 SLP284

TAF:

TAF CYAZ 031640Z 0317/0401 VRB03KT P6SM FEW030 BKN200 RMK NXT FCST BY 031900Z

For more in-depth weather information, please, check Collaborative Flight Planning Service

For all Runway conditions in CYYJ, please check

IIDS Web View

Windy’s Forecast & Observations